Wind_Speed
21 21 20 20 20 20 19 20 21 21 21 20 19 19 18 18 17 17 17 15 14 13 14 14 14 14 13 12 12 12 11 10 9 9 9 8 8 8 9 9 9 10 13
23 23 23 23 23 23 23 23 24 24 23 22 22 22 21 20 20 19 19 18 17 17 17 17 17 17 17 17 16 15 15 14 13 13 12 12 11 10 10 11 11 11 12
24 23 24 24 25 26 26 26 27 27 26 25 25 24 23 23 23 22 22 22 21 20 20 20 20 21 21 21 21 19 18 17 16 15 15 14 13 12 12 13 13 13 15
23 23 23 24 26 27 28 28 29 29 29 28 27 25 25 25 25 24 25 25 24 23 23 22 23 24 25 25 25 24 22 20 19 18 17 16 15 14 14 16 17 16 17
21 22 23 25 26 28 28 29 29 30 29 29 29 27 27 27 27 27 27 28 27 26 25 26 26 27 28 28 28 27 26 24 22 21 19 18 17 16 17 18 19 19 18
22 23 24 26 27 28 29 30 30 31 30 30 30 30 30 30 30 30 30 30 29 28 28 28 29 30 31 31 31 30 29 27 25 24 22 21 20 19 19 19 19 19 19
24 25 26 27 28 29 31 31 31 32 32 32 33 32 32 33 33 33 33 32 32 31 31 30 30 31 31 32 33 32 31 29 27 26 25 24 23 22 20 20 19 19 19
26 28 29 30 31 32 33 34 34 35 35 36 36 36 36 36 36 35 35 35 34 33 33 33 32 31 31 32 33 33 32 30 27 27 27 26 25 24 22 21 19 19 19
30 32 34 35 36 36 37 37 38 39 39 39 40 40 40 40 40 39 38 37 36 36 36 35 34 33 32 32 32 32 32 30 28 28 28 28 28 28 25 23 21 20 19
30 32 34 36 37 37 38 38 38 38 39 39 39 40 41 41 41 41 41 40 39 39 39 39 38 36 35 34 34 33 33 32 31 30 30 31 31 31 29 26 24 22 21
30 31 32 34 36 37 37 38 38 38 37 37 38 38 39 40 41 42 42 42 41 41 41 41 41 40 38 37 37 36 35 34 34 33 32 32 32 33 31 28 26 25 23
34 34 35 36 37 38 39 40 40 40 40 39 39 39 39 40 40 41 42 43 43 42 41 41 41 41 40 39 39 38 37 37 35 33 31 31 32 33 31 28 28 27 25
35 36 36 37 38 40 41 43 44 44 44 44 44 43 43 42 41 42 42 43 43 42 42 42 41 41 41 40 40 40 39 39 37 35 33 32 32 33 32 29 29 29 28
36 37 38 39 40 41 42 43 45 47 48 49 49 49 48 48 47 45 45 45 44 43 43 44 44 43 43 42 42 42 42 40 39 38 36 34 33 34 33 30 29 30 30
40 41 42 43 44 45 46 46 46 46 48 50 51 52 52 52 52 51 50 49 48 47 46 45 46 47 46 45 45 45 43 42 41 40 39 38 36 36 35 33 30 30 31
44 46 48 49 51 51 51 51 51 51 51 51 52 53 54 54 54 54 54 54 53 51 50 49 48 49 50 51 50 49 48 46 44 42 41 40 39 39 38 37 35 33 33
49 51 52 54 56 56 56 56 56 56 56 56 56 57 57 57 57 56 56 56 55 54 54 53 52 51 51 51 52 52 52 50 49 47 46 44 43 42 42 41 39 38 36
55 57 58 59 60 61 61 61 61 61 61 60 60 60 61 62 62 62 61 59 59 58 56 56 56 55 54 54 54 53 53 53 52 51 50 49 47 47 46 46 45 44 43
59 60 62 63 65 66 66 66 66 65 65 64 64 64 63 63 63 64 65 64 63 62 61 59 58 57 57 57 57 57 57 55 55 54 53 51 50 49 48 48 48 47 46
66 65 65 66 67 69 70 70 69 69 68 66 67 67 67 66 66 66 66 66 66 65 64 63 62 61 60 60 60 60 60 59 58 57 56 54 53 51 50 49 48 47 45
76 75 74 72 72 73 74 75 76 76 75 74 74 74 74 74 74 74 73 71 71 70 69 67 67 66 64 63 64 64 63 63 62 61 60 59 57 56 54 53 51 49 48
84 85 85 84 81 80 80 81 82 82 82 82 80 79 80 80 80 80 79 77 76 76 75 73 71 70 68 66 66 67 68 67 65 64 64 63 62 61 59 58 56 54 53
88 89 89 89 89 89 88 88 88 87 87 87 87 86 86 86 84 84 84 83 82 81 80 78 76 75 73 70 67 66 67 67 68 69 68 67 67 65 64 62 60 59 58
86 86 85 84 84 84 84 85 86 87 87 86 86 86 87 88 88 88 89 89 88 86 85 84 82 80 78 75 72 69 67 67 67 67 69 70 70 70 69 67 66 63 62
77 75 71 67 65 65 65 65 64 63 63 63 65 67 72 75 77 80 84 87 88 88 88 87 87 84 83 81 79 76 73 71 70 69 68 68 70 71 71 71 70 69 67
63 58 55 55 55 55 53 51 47 43 41 39 38 40 44 50 56 61 67 72 76 79 82 84 86 86 85 84 83 81 78 76 75 74 72 69 68 68 69 70 71 71 71
Wind_Direction
240 242 244 247 250 254 259 265 271 275 279 282 286 289 292 293 290 282 275 268 264 261 259 258 258 258 256 250 243 243 250 254 256 257 260 263 263 260 256 252 246 239 230
245 246 248 250 252 255 260 265 269 273 275 277 280 282 284 285 282 277 269 264 259 255 253 253 253 254 253 252 250 250 255 257 259 260 261 262 262 261 261 259 254 246 238
249 251 254 256 258 261 264 268 271 274 275 276 277 279 281 281 278 273 266 259 254 252 252 252 253 253 252 252 253 254 256 256 255 256 258 260 262 263 263 261 258 251 244
255 258 262 265 266 267 268 270 272 274 274 275 275 276 278 278 275 270 264 257 252 250 250 252 256 257 256 255 255 254 254 253 251 252 254 254 257 263 266 263 258 254 249
265 267 268 268 268 268 269 269 271 273 274 275 275 275 275 275 273 269 263 257 252 249 249 251 255 257 257 257 256 253 252 250 248 248 251 252 255 260 263 261 258 253 249
275 273 272 271 271 271 270 270 271 272 272 272 272 272 271 270 268 266 262 258 256 254 252 252 253 256 256 256 255 252 250 247 246 247 246 247 252 258 260 260 258 254 247
282 281 279 278 277 276 276 276 275 273 273 272 271 270 269 267 265 263 261 260 260 260 258 256 254 254 254 254 253 251 249 246 243 243 242 243 247 255 258 258 256 253 247
280 279 278 278 277 276 275 275 275 275 274 273 272 271 268 266 264 262 260 260 260 260 260 259 256 253 252 251 250 249 248 244 241 240 241 242 245 250 251 250 249 247 244
278 278 278 277 276 275 274 273 272 271 271 270 269 268 266 265 263 261 260 259 258 257 256 256 255 253 251 249 247 246 245 244 241 239 242 245 247 249 247 244 242 241 240
287 285 284 285 284 282 279 276 273 272 271 270 268 266 264 263 262 260 259 257 255 253 252 251 251 250 250 248 247 246 245 245 243 242 244 247 248 249 246 242 240 238 237
294 291 289 287 287 286 284 281 277 273 270 269 268 267 266 264 263 261 259 259 257 254 251 249 248 248 247 246 245 244 245 246 246 246 246 246 246 246 245 241 238 235 234
298 294 290 286 284 283 282 281 279 276 273 270 268 267 267 266 265 263 261 260 259 256 252 249 248 247 246 245 244 244 244 245 246 245 243 242 243 245 244 239 235 233 231
301 298 294 290 286 282 280 279 278 277 276 274 272 270 269 267 266 266 264 262 260 257 253 250 248 246 244 243 243 243 243 243 244 243 241 239 240 243 244 239 237 232 230
299 296 294 291 288 285 281 278 276 274 274 273 272 271 270 268 267 266 265 264 262 259 256 253 251 247 244 242 241 241 241 240 240 240 238 236 236 239 242 240 238 233 230
296 293 289 286 284 283 281 278 275 273 272 272 271 270 269 267 266 265 264 263 261 258 256 254 253 251 248 246 244 243 242 241 240 238 237 234 233 236 238 239 237 235 231
296 292 289 286 284 282 279 277 274 272 269 268 268 268 267 267 266 264 263 262 261 259 257 254 252 252 252 249 247 244 243 241 239 237 236 234 232 233 236 238 238 237 235
295 291 288 286 284 281 279 277 274 272 270 268 266 265 265 264 263 262 261 259 258 257 257 256 254 252 250 249 248 247 245 243 241 239 237 235 233 232 234 236 237 238 238
294 291 289 286 284 282 280 278 276 273 271 269 267 265 264 263 262 261 259 258 257 255 254 254 254 253 251 249 248 247 247 245 244 242 240 238 236 234 235 237 239 240 241
294 290 288 286 283 281 279 279 277 274 272 270 268 266 264 262 261 261 261 260 258 257 254 252 251 251 251 250 248 247 247 247 246 244 242 240 238 237 237 238 240 241 242
298 294 289 285 282 278 276 275 274 273 272 270 268 266 264 263 261 260 259 259 258 257 256 254 251 250 250 249 248 247 246 246 246 245 244 241 239 238 238 238 239 241 241
300 298 294 289 283 279 274 271 269 267 267 267 267 266 265 264 263 262 261 259 258 257 256 255 253 252 251 251 249 247 245 245 245 245 244 242 240 239 239 239 239 240 241
298 296 293 289 285 280 275 271 268 265 262 261 261 263 264 264 263 263 261 259 256 256 256 256 255 253 251 251 250 249 247 245 244 244 244 244 242 240 239 239 239 239 241
298 296 294 293 292 290 286 281 274 270 267 265 263 261 259 259 259 260 260 258 257 256 256 257 258 257 253 250 249 249 247 246 245 244 243 243 243 242 241 240 240 240 240
300 299 300 301 301 300 298 295 291 286 280 274 269 265 262 261 259 258 258 258 259 258 257 256 256 256 255 254 251 249 248 246 245 244 244 243 243 243 243 243 242 242 241
307 308 309 310 310 310 308 305 302 297 291 285 278 272 267 264 263 262 261 260 260 260 259 257 255 254 254 253 253 251 250 248 246 244 243 244 244 243 244 244 244 244 243
314 316 317 318 319 319 318 316 313 308 302 293 281 272 267 264 262 261 261 260 260 260 260 258 256 253 251 250 250 251 250 250 248 246 244 243 244 244 243 244 244 244 244
Height
5857 5856 5856 5856 5856 5855 5855 5855 5854 5854 5855 5855 5855 5854 5854 5854 5854 5854 5855 5855 5855 5856 5856 5856 5857 5857 5858 5859 5859 5860 5860 5861 5861 5862 5862 5863 5863 5863 5863 5864 5865 5866 5867
5853 5852 5852 5852 5852 5851 5851 5851 5851 5851 5851 5851 5850 5850 5850 5851 5851 5850 5851 5851 5852 5853 5853 5853 5854 5854 5855 5856 5856 5857 5857 5858 5858 5859 5859 5859 5860 5860 5861 5862 5862 5864 5865
5849 5849 5849 5848 5848 5848 5847 5847 5847 5847 5847 5846 5845 5845 5845 5846 5846 5846 5846 5847 5847 5848 5849 5849 5850 5850 5851 5852 5853 5853 5853 5854 5855 5855 5855 5856 5856 5857 5858 5858 5859 5861 5862
5845 5846 5846 5845 5845 5844 5844 5844 5843 5843 5842 5841 5841 5840 5840 5840 5840 5841 5841 5841 5842 5843 5843 5844 5845 5846 5847 5847 5848 5849 5849 5850 5851 5852 5852 5853 5853 5854 5854 5855 5856 5857 5859
5842 5842 5842 5841 5840 5840 5839 5838 5838 5838 5837 5836 5836 5835 5834 5835 5835 5835 5835 5836 5836 5836 5837 5838 5839 5840 5841 5842 5843 5843 5844 5845 5846 5847 5848 5849 5850 5850 5851 5851 5852 5853 5855
5839 5838 5838 5837 5836 5835 5835 5833 5833 5832 5831 5830 5830 5829 5828 5829 5829 5829 5829 5830 5830 5830 5830 5831 5832 5833 5834 5835 5836 5837 5838 5839 5841 5842 5843 5845 5846 5846 5847 5847 5848 5849 5850
5836 5835 5834 5833 5832 5831 5830 5829 5828 5826 5825 5824 5823 5822 5821 5822 5822 5822 5822 5823 5823 5823 5823 5824 5825 5826 5827 5828 5829 5830 5831 5833 5835 5836 5838 5839 5840 5841 5842 5842 5843 5844 5846
5831 5830 5828 5826 5825 5824 5823 5821 5820 5819 5818 5817 5816 5815 5814 5814 5814 5814 5815 5815 5815 5816 5816 5817 5818 5819 5820 5821 5823 5824 5825 5827 5829 5831 5832 5834 5835 5836 5837 5838 5839 5841 5842
5825 5823 5821 5819 5817 5815 5814 5813 5811 5810 5808 5807 5806 5806 5806 5805 5805 5806 5806 5806 5807 5807 5808 5809 5810 5811 5813 5814 5816 5817 5819 5821 5823 5825 5827 5828 5829 5830 5832 5834 5835 5836 5838
5820 5817 5814 5812 5809 5807 5805 5803 5802 5800 5799 5798 5797 5796 5796 5795 5796 5796 5797 5797 5798 5798 5799 5800 5801 5802 5804 5806 5808 5810 5812 5815 5817 5819 5821 5822 5823 5824 5826 5828 5830 5832 5834
5814 5811 5808 5805 5801 5799 5797 5795 5793 5791 5790 5789 5788 5787 5786 5786 5786 5786 5787 5787 5788 5789 5790 5791 5792 5793 5795 5798 5800 5802 5804 5807 5810 5812 5814 5815 5816 5817 5819 5822 5824 5826 5829
5808 5805 5802 5799 5795 5792 5789 5787 5784 5783 5781 5780 5779 5778 5777 5777 5777 5777 5777 5777 5778 5779 5780 5781 5782 5784 5786 5789 5791 5793 5796 5799 5801 5804 5806 5808 5809 5810 5812 5815 5817 5820 5823
5801 5798 5794 5791 5788 5784 5781 5778 5775 5773 5771 5770 5769 5768 5768 5768 5767 5767 5768 5767 5768 5768 5769 5771 5773 5774 5777 5779 5781 5784 5786 5789 5793 5795 5798 5800 5802 5803 5805 5808 5811 5814 5818
5793 5789 5785 5782 5778 5774 5771 5768 5766 5763 5761 5759 5757 5757 5757 5757 5757 5757 5757 5758 5758 5759 5759 5761 5763 5765 5767 5769 5771 5773 5776 5779 5783 5786 5789 5792 5795 5796 5798 5802 5805 5808 5811
5785 5779 5775 5770 5767 5763 5759 5756 5754 5752 5749 5747 5746 5745 5744 5744 5745 5745 5745 5746 5746 5747 5749 5750 5753 5755 5757 5760 5762 5764 5767 5770 5773 5776 5780 5783 5786 5789 5791 5794 5798 5801 5804
5776 5771 5765 5760 5755 5751 5746 5743 5739 5737 5735 5734 5732 5731 5731 5731 5731 5732 5732 5733 5734 5735 5737 5739 5741 5743 5746 5749 5752 5754 5756 5759 5762 5766 5770 5773 5777 5780 5783 5786 5790 5793 5797
5765 5759 5754 5748 5743 5738 5734 5729 5725 5721 5718 5717 5716 5715 5715 5715 5715 5716 5718 5719 5719 5721 5724 5726 5728 5730 5733 5736 5739 5742 5745 5748 5751 5755 5759 5763 5767 5770 5773 5777 5780 5784 5788
5755 5748 5741 5735 5730 5724 5719 5715 5711 5707 5703 5701 5698 5697 5696 5697 5698 5699 5700 5703 5705 5706 5708 5711 5714 5717 5720 5722 5725 5729 5732 5736 5740 5743 5747 5752 5756 5760 5763 5767 5770 5774 5779
5740 5734 5727 5720 5714 5708 5703 5698 5693 5690 5687 5685 5682 5679 5678 5678 5678 5680 5682 5684 5687 5690 5693 5695 5698 5701 5705 5708 5711 5714 5718 5722 5727 5731 5735 5739 5743 5748 5752 5756 5760 5764 5768
5724 5716 5708 5701 5694 5689 5683 5678 5674 5670 5667 5664 5662 5660 5659 5659 5659 5660 5662 5665 5667 5671 5674 5677 5681 5684 5689 5692 5695 5699 5703 5707 5712 5717 5721 5726 5730 5734 5739 5743 5748 5752 5757
5705 5696 5687 5678 5670 5663 5658 5653 5649 5646 5643 5641 5639 5638 5637 5637 5638 5639 5642 5645 5647 5651 5655 5658 5661 5666 5671 5674 5678 5683 5686 5691 5696 5702 5706 5711 5716 5721 5725 5730 5735 5740 5745
5684 5673 5662 5651 5642 5635 5629 5624 5620 5618 5616 5615 5615 5615 5613 5613 5614 5616 5619 5623 5625 5629 5634 5637 5640 5645 5652 5656 5660 5663 5669 5675 5681 5685 5690 5696 5701 5706 5712 5717 5721 5727 5732
5660 5646 5633 5621 5611 5603 5597 5592 5589 5587 5586 5586 5586 5587 5588 5588 5590 5592 5596 5599 5603 5607 5612 5616 5619 5623 5630 5637 5641 5645 5649 5657 5662 5667 5673 5679 5685 5691 5697 5702 5707 5713 5718
5634 5622 5611 5599 5588 5577 5568 5559 5553 5549 5550 5552 5555 5558 5561 5562 5564 5567 5571 5576 5580 5585 5590 5595 5599 5603 5608 5615 5621 5626 5631 5637 5643 5649 5655 5661 5667 5673 5680 5686 5692 5698 5704
5613 5602 5593 5583 5572 5560 5548 5538 5530 5523 5520 5519 5521 5527 5533 5537 5540 5543 5548 5552 5556 5561 5565 5570 5575 5581 5586 5593 5599 5605 5611 5616 5622 5629 5636 5643 5649 5656 5662 5669 5676 5682 5688
5599 5590 5580 5571 5561 5549 5538 5527 5517 5510 5505 5502 5501 5503 5508 5513 5516 5520 5524 5529 5532 5536 5540 5544 5549 5555 5562 5569 5576 5582 5589 5596 5603 5609 5616 5624 5630 5637 5644 5651 5658 5665 5671